Theta_e
346 346 346 347 348 348 348 348 346 346 346 344 345 344 344 346 348 347 346 347 346 345 346 343 345 344 345 346 347 348 349 348 345 348 347 347 346 346 346 347 349 348 347
341 346 347 347 347 348 348 347 346 346 346 347 346 348 342 346 348 348 347 348 347 346 346 347 345 345 343 345 346 347 347 345 346 346 348 347 346 347 347 346 348 347 347
338 342 347 346 347 347 348 347 347 347 347 348 348 348 348 347 347 347 348 348 347 347 347 348 347 346 344 343 345 347 346 344 346 346 348 348 347 347 346 347 347 345 345
335 336 341 345 347 347 348 348 347 347 348 347 348 347 345 342 343 347 348 348 348 348 348 348 349 348 348 345 343 345 345 343 344 344 345 347 346 348 348 347 343 342 346
338 339 338 345 348 348 348 348 347 348 347 347 346 347 345 346 344 346 350 350 350 350 350 350 350 350 349 349 348 348 348 343 342 345 345 345 343 347 348 346 345 346 346
341 333 341 341 342 348 349 347 344 348 346 345 347 347 348 349 347 340 347 350 350 348 351 350 351 351 349 349 349 349 349 348 345 343 343 342 345 346 346 346 345 346 344
342 337 351 351 345 342 344 346 348 347 348 346 346 347 347 347 345 344 345 345 345 348 350 351 350 350 349 348 348 347 348 348 348 348 347 345 346 345 343 342 345 345 345
348 352 349 350 349 352 355 351 348 350 348 346 348 348 349 349 351 350 350 349 348 349 349 351 350 351 351 350 350 350 348 347 348 348 348 347 346 347 347 343 340 344 344
354 351 349 346 344 347 349 348 344 350 351 353 353 356 355 353 353 350 350 350 350 350 342 351 351 350 347 350 349 349 348 349 348 347 347 347 346 346 345 346 346 343 342
343 341 339 334 332 332 335 341 346 347 348 351 352 354 353 354 355 354 354 354 352 349 349 349 348 350 349 348 349 349 348 348 348 350 348 348 348 347 345 346 345 345 344
338 335 334 333 331 330 328 326 328 331 336 340 341 342 343 345 347 348 349 349 349 351 353 351 348 348 349 351 349 348 349 350 347 348 347 347 347 346 346 346 346 346 345
336 335 333 333 332 331 329 324 325 325 325 325 326 330 335 338 340 342 344 346 347 346 346 350 349 347 348 347 345 350 349 349 349 349 349 348 348 348 347 345 345 345 346
335 333 331 331 331 329 326 328 328 328 328 328 328 328 327 327 328 332 336 339 341 343 343 343 347 350 348 347 349 349 351 351 351 351 351 352 352 351 350 349 346 346 345
333 331 331 331 329 327 328 328 327 324 322 322 322 321 320 324 328 329 328 332 336 339 340 341 343 343 347 347 348 342 346 345 349 351 350 350 351 351 349 350 349 349 347
331 331 331 329 327 325 326 325 321 320 320 319 319 319 319 319 324 327 328 329 332 337 338 339 341 343 343 344 344 344 343 342 341 342 346 349 349 347 347 347 348 349 349
330 329 329 328 327 326 324 320 320 320 319 321 320 320 320 319 321 324 326 327 328 331 336 337 338 339 342 343 343 343 344 342 341 339 338 338 341 343 344 346 345 345 347
329 328 328 328 325 321 320 320 321 319 319 320 320 320 320 320 320 319 320 323 324 325 327 333 335 337 338 339 340 340 341 342 343 344 344 342 341 341 340 339 340 345 346
328 328 327 324 321 321 321 321 318 319 320 320 321 321 322 322 322 321 321 321 321 322 323 325 330 333 336 337 337 338 339 339 338 338 342 341 340 340 341 342 343 339 339
328 326 324 322 321 320 319 316 317 319 320 320 320 321 321 322 321 322 322 322 322 322 322 323 322 328 333 333 332 332 333 329 328 333 336 339 341 340 337 335 337 340 342
325 323 322 322 322 321 315 314 319 321 321 320 320 321 320 321 322 322 322 323 324 325 326 325 323 323 328 331 330 330 330 329 332 337 338 340 339 336 331 330 330 332 335
323 322 322 323 321 317 311 313 318 320 320 320 321 320 321 321 321 322 323 324 325 325 326 327 326 325 322 326 327 328 328 330 334 338 337 336 338 335 334 331 329 330 331
323 323 322 321 318 312 312 312 314 318 319 320 321 320 321 323 322 323 324 325 326 326 326 327 328 329 329 326 330 330 331 332 335 335 333 333 331 327 327 329 329 330 331
322 322 321 318 314 311 311 313 316 317 319 320 319 320 320 320 321 323 324 326 327 326 329 328 328 329 330 332 331 332 333 330 330 329 329 329 329 327 325 327 329 329 329
322 321 319 316 313 310 311 316 316 318 318 319 319 319 319 320 321 322 323 325 326 326 328 328 329 329 330 329 329 331 330 329 329 330 329 329 329 330 329 327 329 330 329
321 318 314 313 313 308 311 311 311 318 317 317 317 319 320 320 321 321 322 323 324 324 325 327 327 328 329 329 329 329 330 329 330 329 328 329 329 329 329 328 329 330 329
317 315 314 316 313 309 307 309 308 310 317 315 316 319 319 320 320 320 321 322 322 322 322 323 324 326 326 328 329 329 329 330 329 329 329 329 328 329 328 327 327 328 329
Wind_Speed
13 17 19 25 29 27 23 21 21 19 20 19 16 14 20 17 15 13 12 10 9 7 6 7 10 10 7 5 5 5 5 7 6 5 4 5 8 14 17 16 15 15 14
15 11 14 19 24 31 26 22 22 21 20 19 15 14 16 18 16 15 13 13 11 11 11 8 10 9 13 9 7 5 7 6 5 8 6 2 3 6 14 13 17 18 17
9 12 8 12 24 28 30 24 20 22 19 19 19 18 16 21 20 19 17 16 15 14 14 10 8 11 12 15 12 12 11 10 8 7 5 4 2 8 5 13 16 16 16
5 9 15 11 19 25 28 27 24 23 19 21 22 22 20 20 21 20 19 16 16 17 16 15 14 15 13 13 16 16 16 15 11 8 6 4 7 4 5 8 11 12 16
6 8 2 9 6 18 24 27 23 21 19 23 23 22 25 24 21 23 21 21 20 18 20 20 18 18 17 16 15 14 14 16 15 14 10 9 9 8 6 8 9 9 9
18 5 3 2 4 9 22 24 16 20 6 15 27 27 28 28 28 26 27 23 21 20 21 20 20 21 19 18 17 15 16 15 17 17 16 15 14 12 9 10 13 14 13
19 9 2 4 2 2 11 15 23 20 23 16 18 23 28 25 27 24 25 27 25 22 23 23 23 23 22 19 18 18 16 16 18 18 17 17 17 16 16 15 15 16 14
20 18 15 13 15 10 7 9 13 12 27 18 21 24 19 22 16 20 24 26 26 22 22 23 24 24 22 21 19 21 18 16 17 17 18 18 19 18 17 16 19 21 22
14 11 9 11 15 15 14 13 9 13 13 10 6 9 17 18 17 19 20 25 23 18 21 27 29 27 25 22 19 18 20 19 17 19 18 18 17 17 18 20 20 22 25
16 13 11 12 12 13 13 9 7 6 5 1 2 5 8 11 14 17 17 18 17 16 24 24 24 22 23 25 26 27 22 21 21 20 20 22 21 20 19 18 18 21 25
15 11 10 10 10 13 13 12 10 9 7 5 5 5 7 10 13 15 16 17 17 18 16 19 22 21 23 23 21 23 23 23 23 23 24 23 22 23 21 21 21 20 23
17 12 8 5 6 10 14 15 13 13 12 12 11 12 13 14 15 14 16 17 17 16 17 17 17 19 22 27 25 25 25 24 25 25 24 24 24 25 26 26 26 26 24
20 15 10 5 5 9 11 12 14 15 16 15 15 15 16 17 19 18 18 18 19 19 17 16 17 21 22 25 27 24 22 25 26 26 26 25 25 26 26 26 28 29 25
19 14 7 2 5 7 9 10 13 16 16 15 16 17 17 17 18 18 19 19 20 20 19 18 17 18 19 22 25 27 24 23 24 25 25 26 26 26 25 25 26 26 25
17 10 4 3 8 11 12 16 17 18 20 22 22 22 20 18 18 19 19 19 19 19 18 18 18 18 19 19 18 19 21 24 24 22 23 24 25 24 22 23 25 25 26
17 11 4 2 6 10 14 16 18 22 24 26 26 24 22 21 20 21 21 20 19 20 19 18 19 20 20 19 18 18 19 19 21 22 23 24 25 25 24 22 22 24 24
16 10 5 4 6 10 12 14 18 22 23 22 20 20 21 21 20 21 22 22 23 23 22 21 20 20 20 19 18 17 17 17 17 19 20 21 22 22 23 23 24 24 24
15 10 5 4 7 10 12 16 19 19 19 17 17 17 19 20 20 19 18 17 19 21 23 24 24 23 21 19 17 17 17 17 18 17 17 17 17 18 19 21 23 24 27
11 7 3 5 8 10 14 17 16 16 17 17 17 18 19 19 17 16 17 19 20 20 19 19 22 27 25 22 19 17 17 17 18 16 16 15 15 12 14 17 20 24 27
7 3 2 5 8 13 15 17 16 15 16 16 16 18 19 19 18 16 16 16 16 18 17 17 17 19 26 25 20 16 15 16 17 15 15 14 13 12 14 16 18 20 23
5 3 3 7 13 16 18 17 16 15 15 15 15 16 17 17 16 15 15 15 15 18 18 17 15 13 15 22 17 15 12 13 14 13 8 8 11 14 16 18 18 20 22
7 3 8 12 15 17 17 17 14 12 13 13 13 13 15 14 16 15 14 15 16 17 17 15 13 9 6 8 7 10 9 10 10 14 14 12 14 16 18 18 18 18 21
5 7 11 14 14 14 15 15 13 12 13 13 13 13 12 13 14 14 14 16 17 18 19 17 15 11 6 7 6 3 7 7 9 12 13 15 16 17 18 18 18 19 21
6 8 10 12 12 12 13 13 12 12 11 11 11 11 13 11 12 13 13 15 18 17 14 15 15 12 10 9 12 12 10 11 12 13 16 19 21 20 20 20 19 18 18
7 9 10 9 9 9 8 11 12 9 9 10 12 12 12 12 12 10 11 9 14 19 14 15 16 17 14 12 12 14 18 18 18 19 21 24 23 23 20 19 18 18 18
8 7 6 6 8 7 9 10 12 10 8 10 10 11 11 12 13 13 8 6 8 13 16 15 14 13 13 15 14 14 15 16 16 18 19 21 21 19 18 19 20 19 20
Wind_Direction
184 202 212 222 222 229 217 222 226 219 213 209 210 220 221 228 235 237 239 249 261 258 279 252 238 253 265 274 301 281 314 353 321 359 346 237 233 238 234 245 248 249 251
187 194 214 216 223 225 224 223 223 219 221 217 217 227 225 228 235 235 241 250 248 253 255 281 253 254 254 255 265 264 279 306 309 324 330 294 274 288 231 245 247 257 254
245 197 211 252 227 225 226 226 230 220 226 224 226 234 234 231 237 238 237 238 244 249 249 264 269 261 263 248 261 265 274 285 284 282 319 324 353 345 230 242 251 256 258
328 331 266 262 238 234 226 228 235 227 236 238 237 242 250 247 246 247 248 245 247 252 254 256 256 259 254 257 257 261 268 278 273 266 264 283 306 329 290 286 290 252 249
224 26 358 227 229 221 238 238 236 240 243 233 243 248 257 258 260 250 252 248 251 254 251 255 259 262 263 261 256 260 268 264 261 267 269 270 271 303 272 298 319 293 273
230 277 57 32 257 235 231 231 230 225 264 261 251 252 255 257 262 255 251 247 247 256 253 255 257 255 257 258 257 260 261 266 262 262 268 273 267 262 274 281 293 301 267
224 186 95 66 155 200 218 221 233 230 233 266 251 249 260 261 255 255 259 256 254 257 256 257 258 259 265 265 264 257 260 263 267 267 269 267 271 267 266 267 276 292 294
122 126 96 80 77 79 102 195 206 234 219 211 253 245 258 272 264 255 252 256 259 265 271 271 263 264 267 271 265 261 262 267 270 269 271 271 264 264 263 265 264 269 274
118 97 69 64 58 60 62 87 100 101 118 160 218 253 262 268 270 274 268 266 267 260 272 259 256 260 260 258 259 264 259 262 267 266 268 267 270 267 265 267 260 260 269
118 106 85 59 43 42 42 45 47 55 81 129 203 245 255 265 273 277 282 282 284 269 264 267 265 260 256 258 262 267 261 257 259 268 267 266 266 270 266 263 262 260 261
131 112 87 62 39 25 16 10 1 353 345 333 306 296 284 281 277 278 280 281 278 269 265 261 258 255 257 259 255 260 266 262 269 267 268 269 267 268 269 266 258 258 259
144 138 137 101 50 16 360 352 344 335 329 320 308 297 296 295 297 292 286 286 287 287 280 272 261 255 253 252 254 255 255 259 261 264 269 268 271 270 267 261 259 261 263
157 157 146 114 34 3 354 349 346 343 334 325 316 305 298 294 290 290 290 288 287 287 285 276 272 254 251 253 254 255 253 257 257 259 259 263 266 266 266 263 264 266 264
163 165 158 95 4 348 345 338 334 329 328 326 324 322 316 299 292 295 290 287 285 287 285 280 273 264 258 257 255 258 263 263 261 261 261 262 261 260 262 263 263 265 264
167 170 184 311 328 329 330 327 327 328 327 325 323 320 314 309 298 292 290 285 280 282 282 280 273 269 265 265 270 269 264 262 262 262 264 265 268 270 266 267 268 267 262
169 172 187 275 307 322 327 328 328 327 327 326 322 319 316 309 302 297 291 287 281 274 273 274 272 269 267 267 267 271 271 269 269 271 270 270 271 273 273 272 275 270 268
177 178 196 256 315 329 327 321 322 323 323 325 323 320 320 316 310 305 291 287 285 280 271 267 270 268 264 267 267 267 262 269 273 271 271 273 275 277 275 270 263 261 263
177 184 214 294 322 327 322 320 320 320 321 323 326 321 320 318 314 311 310 306 296 290 282 271 264 264 262 262 264 264 264 265 269 272 271 279 290 287 280 275 270 265 263
177 191 247 310 323 324 322 320 319 316 315 315 319 321 322 327 328 317 318 320 315 311 303 293 275 262 258 263 264 268 268 269 271 273 271 271 282 291 296 292 284 274 271
185 213 264 320 320 326 327 324 322 318 319 320 324 326 328 329 330 330 329 327 328 327 322 312 300 281 257 259 267 274 275 275 277 277 272 267 273 295 305 309 306 303 292
189 223 296 310 325 329 327 321 314 312 320 324 326 331 329 329 332 332 331 326 327 322 321 315 312 299 282 258 269 272 267 272 279 276 272 270 267 286 293 298 303 307 302
181 263 298 317 326 325 324 321 312 311 318 325 329 337 340 345 341 334 334 327 324 324 329 325 321 318 300 257 254 268 270 263 271 274 278 286 292 296 300 298 296 299 304
257 278 306 320 323 324 322 325 328 325 322 327 332 343 339 342 340 337 342 342 341 336 337 331 325 328 310 247 246 254 239 249 266 270 279 297 303 304 305 304 299 294 298
257 296 312 318 323 327 334 344 341 336 336 340 342 340 338 337 338 339 347 346 347 343 342 341 345 340 322 280 258 247 259 266 269 271 283 294 297 301 305 303 297 292 297
270 297 304 312 326 329 335 348 339 335 342 352 351 344 340 341 333 346 353 3 348 355 2 359 347 337 332 327 309 279 273 276 277 281 286 290 291 293 298 301 297 291 292
282 288 295 309 328 328 327 336 345 337 337 338 339 342 338 338 337 340 354 338 351 340 349 355 348 342 328 315 317 314 304 295 289 287 289 290 293 298 303 309 311 309 304